Theta_e
321 323 325 324 324 323 323 322 321 319 319 318 318 318 318 317 318 318 318 317 317 317 317 317 317 317 318 312 310 324 330 329 321 316 314 312 309 307 303 305 307 305 307 307 312 312 311
320 320 323 324 323 323 323 322 321 319 318 318 317 317 317 317 318 318 317 317 317 316 316 316 316 316 318 305 317 320 322 321 318 315 314 314 310 311 308 307 305 307 308 308 311 310 311
319 319 320 322 322 322 322 321 320 319 319 318 317 316 316 317 317 317 317 316 316 315 315 316 317 318 313 309 319 323 322 318 320 318 314 316 315 311 311 307 308 307 305 305 307 310 309
317 319 319 320 321 320 320 319 319 319 318 317 317 316 316 316 316 315 315 315 315 315 315 316 316 319 309 318 321 319 321 319 320 320 318 318 318 313 311 308 304 302 301 298 305 309 310
317 318 319 319 320 320 319 318 318 319 318 317 317 316 315 315 315 314 314 315 314 315 315 316 317 316 308 318 314 318 320 315 316 318 318 316 315 310 309 302 299 301 294 298 300 308 307
316 317 318 318 319 320 319 318 318 317 317 317 316 316 315 315 314 314 313 313 315 314 315 319 317 312 315 310 314 317 318 316 314 315 312 312 310 307 305 300 293 296 297 299 299 304 305
314 316 317 316 317 320 320 319 318 316 316 316 316 315 316 315 315 314 313 317 313 313 315 309 309 308 310 316 318 314 315 314 315 312 304 309 303 298 301 303 302 301 299 298 301 303 302
313 315 316 316 316 319 321 320 317 316 316 316 315 315 315 315 315 314 316 312 314 319 310 312 310 310 313 314 308 312 315 308 309 302 305 305 300 305 305 304 302 301 299 298 302 303 303
311 313 314 316 315 317 321 320 317 316 315 315 315 315 315 314 313 314 315 314 324 322 313 309 311 309 311 312 308 309 312 310 306 303 304 300 303 306 304 302 301 300 299 299 300 302 303
311 312 313 314 315 314 319 320 318 316 315 314 314 314 314 312 310 317 314 319 321 322 305 302 305 308 310 312 306 313 314 310 306 301 303 303 307 304 302 301 302 298 304 302 301 300 295
311 311 312 313 313 313 312 318 317 316 315 314 313 314 312 311 318 313 320 322 324 324 291 303 305 315 312 307 307 308 314 310 303 303 304 302 303 302 301 302 304 301 305 303 302 300 299
310 310 311 312 312 311 311 315 316 315 314 314 313 313 312 314 316 320 325 331 324 303 290 299 306 304 305 307 306 308 308 311 311 304 306 302 309 307 306 305 305 307 304 303 303 301 294
308 309 311 311 312 311 310 313 314 314 314 313 312 312 313 319 314 325 326 323 302 294 302 298 300 304 303 302 303 304 303 302 300 296 298 303 303 307 308 303 306 305 301 294 292 292 291
308 309 309 310 311 310 310 311 313 313 312 312 310 311 313 319 322 328 324 311 294 298 299 303 302 303 300 302 302 302 302 299 303 303 298 296 295 303 307 305 302 302 301 294 285 288 292
307 308 309 309 310 310 310 310 313 312 311 310 309 315 317 320 323 325 314 300 299 300 302 300 301 298 299 301 301 301 301 300 303 304 296 297 296 305 305 306 305 302 297 303 296 297 292
306 307 307 308 309 309 309 309 312 312 310 308 312 314 314 324 324 320 308 299 303 305 304 303 297 300 296 299 298 299 300 304 303 306 309 302 296 302 304 307 306 304 306 296 297 287 285
303 306 307 307 308 308 309 309 311 311 309 308 312 308 318 325 322 311 301 303 305 307 308 302 300 299 299 299 300 299 299 304 306 306 309 305 301 300 302 300 299 301 299 299 299 297 289
299 305 305 306 307 308 308 308 310 310 309 308 311 302 321 326 302 306 303 306 304 305 311 306 305 303 301 302 300 300 299 303 309 308 303 306 302 297 299 304 305 304 301 301 294 292 294
298 305 305 306 307 307 308 308 310 309 309 310 306 309 322 321 298 304 307 306 307 304 306 306 303 304 305 303 299 302 302 308 308 308 304 306 299 294 296 300 303 300 302 301 301 298 293
298 304 305 305 306 307 308 308 309 309 309 314 309 303 309 314 308 307 304 304 302 308 307 308 305 306 304 302 304 302 302 306 308 308 301 305 301 297 293 296 301 299 300 301 300 294 293
298 303 304 305 306 307 307 308 309 308 309 312 309 305 309 302 305 307 307 305 301 301 308 309 305 305 304 300 301 302 305 305 306 301 305 306 299 300 300 300 300 299 299 299 298 298 295
300 302 304 304 305 306 307 307 308 308 309 307 308 306 309 306 306 307 304 304 301 303 305 304 303 305 306 303 304 302 306 305 304 307 306 306 299 300 296 299 299 297 299 299 299 299 298
302 303 304 304 305 306 306 306 307 307 309 305 314 317 311 305 307 305 305 304 303 306 309 310 307 305 306 307 312 313 311 310 309 307 305 304 301 297 292 295 295 291 296 298 299 300 300
302 303 304 304 305 305 305 305 306 307 308 313 316 316 308 304 307 305 305 306 304 305 306 308 311 308 310 315 314 312 310 308 307 306 309 303 301 298 293 289 285 296 299 299 298 300 301
302 303 304 304 305 305 305 305 305 307 308 315 326 319 310 301 307 304 305 305 306 309 309 309 309 313 315 312 305 300 301 300 300 302 301 304 300 293 291 290 293 295 297 296 295 295 301
302 303 304 304 304 305 305 305 306 306 307 313 319 324 315 309 306 306 304 306 305 307 308 306 312 313 311 310 305 296 293 297 296 299 301 299 301 298 291 289 285 295 299 302 301 292 301
302 303 304 304 304 305 305 306 306 306 307 313 318 325 318 309 309 309 305 306 309 309 307 306 307 306 310 307 299 299 297 300 295 294 291 295 296 293 293 292 295 300 300 302 291 294 302
303 303 303 302 304 305 305 305 306 306 307 312 316 326 320 313 312 314 312 309 311 310 307 309 307 307 307 302 304 302 299 300 298 299 296 295 295 291 295 288 287 301 301 295 303 304 304
303 302 304 305 305 305 305 305 305 306 306 311 312 325 325 318 312 319 318 318 316 317 313 311 309 309 310 306 306 307 296 295 300 294 301 295 300 299 298 298 303 303 302 305 306 304 305
Wind_Speed
11 14 16 15 15 14 13 13 12 11 10 9 9 10 11 11 12 13 12 12 12 10 10 10 10 10 11 10 13 9 7 7 13 14 14 11 11 11 12 11 9 10 9 3 8 9 9
11 11 16 16 16 15 15 13 12 11 10 9 9 10 11 11 11 12 12 11 10 8 7 9 9 9 12 14 3 2 2 8 10 14 15 12 9 11 11 6 9 8 6 5 8 6 13
13 11 11 17 16 15 15 13 12 11 10 9 10 10 10 10 10 11 11 10 9 7 7 9 7 8 12 17 4 1 7 6 7 12 14 11 11 7 4 7 1 8 16 4 8 13 10
15 13 12 11 17 16 15 14 13 12 11 9 10 10 10 11 10 11 10 9 8 6 6 8 6 10 9 4 9 11 12 14 7 9 12 3 5 9 8 5 5 7 10 14 14 14 15
16 15 12 10 15 17 16 14 14 13 11 10 10 9 10 10 10 9 8 9 7 6 7 6 7 7 9 5 10 11 10 6 2 6 6 2 7 9 6 10 12 11 9 13 10 15 9
17 16 11 9 10 17 17 16 15 13 11 10 9 9 9 9 10 9 6 7 5 7 9 8 10 8 9 7 0 5 4 5 7 6 7 9 8 9 9 11 10 13 16 16 14 13 12
18 17 16 13 12 13 18 17 16 14 12 10 9 8 8 9 9 6 5 6 7 9 11 13 5 12 4 10 9 11 5 9 8 6 7 11 8 9 16 18 7 11 10 10 14 9 13
19 19 17 15 13 13 18 18 16 14 13 11 9 8 6 7 7 4 8 9 9 8 10 21 16 11 13 10 9 10 5 8 10 11 12 15 7 12 8 9 7 7 4 7 9 9 7
21 20 18 17 15 14 18 19 17 15 13 11 9 6 5 4 3 4 12 13 5 12 8 9 14 12 10 8 12 14 9 7 7 9 17 10 5 4 6 8 7 3 8 5 9 11 13
22 20 18 18 17 12 16 20 18 16 14 12 10 7 6 7 4 8 10 14 13 7 8 12 12 9 9 8 8 9 6 6 5 11 12 7 20 8 7 5 6 8 1 2 4 12 13
24 22 19 19 18 15 13 19 19 17 15 13 11 10 9 18 8 7 7 1 4 4 6 15 16 7 11 13 3 12 4 9 14 9 9 8 9 7 9 5 6 9 2 4 6 12 10
25 23 21 20 19 15 12 14 19 18 15 13 12 11 9 5 7 11 7 6 4 8 8 8 11 14 13 13 7 4 11 9 4 7 11 6 7 3 10 2 3 4 4 7 8 10 9
27 24 23 21 19 17 14 13 16 18 15 14 13 12 11 8 5 4 7 6 7 11 7 12 17 18 17 10 10 10 13 15 12 10 11 14 8 5 4 7 4 8 8 8 6 5 8
27 26 24 22 20 18 15 13 16 17 15 15 12 9 11 10 9 4 8 8 13 11 13 6 15 16 16 13 12 12 12 16 18 14 11 11 8 11 7 10 5 9 10 5 6 7 7
29 27 25 23 21 19 17 14 18 18 18 17 14 7 9 9 11 5 9 14 14 6 13 9 11 16 17 13 7 12 15 15 14 15 9 17 5 7 1 2 6 6 7 6 4 1 5
30 27 25 23 21 20 18 15 17 19 23 22 9 9 12 13 15 8 10 18 20 6 5 11 15 16 16 14 12 13 14 13 6 4 7 3 3 4 6 6 6 8 3 5 5 4 7
30 28 24 22 21 19 19 16 17 22 25 23 12 8 9 16 13 9 13 18 19 7 9 14 16 15 15 15 15 15 13 7 7 9 7 7 9 8 5 10 11 8 9 7 5 2 4
32 28 25 23 22 20 20 17 17 24 26 17 13 12 12 14 12 10 15 20 20 14 10 11 9 13 13 13 12 11 15 11 9 7 11 4 5 7 11 4 5 10 8 9 6 7 3
31 29 25 23 21 20 21 20 18 27 27 12 10 8 6 14 16 14 18 21 21 17 12 13 12 13 12 11 11 12 11 6 5 8 6 6 7 9 7 7 6 9 10 8 7 2 9
25 28 25 23 22 21 22 20 19 31 29 14 10 11 5 9 16 22 23 21 19 17 12 13 15 13 10 12 11 10 9 4 4 5 3 1 12 10 10 8 5 13 12 12 11 8 10
29 25 23 23 22 21 22 20 21 34 31 12 6 14 13 17 21 22 23 18 22 19 11 13 12 15 14 11 14 8 10 7 7 5 6 6 9 13 14 5 8 8 9 10 16 17 16
29 27 23 23 22 21 23 21 21 32 29 8 7 12 15 16 24 22 22 23 24 21 17 15 17 19 16 10 11 11 12 10 9 10 8 6 6 4 5 6 9 11 13 13 14 17 18
31 26 24 22 22 22 24 21 23 24 19 6 10 8 12 16 24 19 19 23 21 19 4 10 19 17 12 3 8 10 7 2 3 8 10 6 4 4 7 3 5 6 15 18 18 17 14
27 26 24 23 24 23 28 25 22 22 24 8 11 4 9 15 19 20 24 22 19 10 11 5 12 11 7 12 14 12 11 9 7 5 3 5 7 2 1 2 1 2 2 5 7 12 14
27 25 24 24 24 26 29 27 28 29 33 15 7 5 4 4 18 23 24 24 15 8 11 12 5 5 16 8 5 5 2 3 3 3 3 4 5 3 3 6 9 12 5 2 2 6 6
26 25 23 25 24 26 30 26 25 28 34 15 5 7 6 9 16 25 19 22 12 11 7 6 10 7 3 2 2 5 5 7 6 7 3 4 3 5 4 3 4 4 4 1 1 5 8
23 24 24 23 20 29 28 28 28 30 32 14 7 5 6 8 9 14 15 15 14 12 7 7 8 4 4 3 2 3 5 3 6 5 5 3 2 6 5 3 6 5 3 2 5 4 6
24 23 21 18 27 26 27 28 29 29 23 16 11 6 7 4 6 2 7 16 9 13 7 11 7 2 3 3 3 3 1 4 2 3 6 7 7 4 3 3 6 7 7 2 5 5 5
20 18 26 29 28 27 28 27 28 25 22 20 6 3 4 1 6 7 9 10 5 4 7 12 3 11 7 5 0 3 2 1 2 4 3 4 5 2 7 1 5 4 4 3 5 8 8
Wind_Direction
300 294 234 232 227 223 228 229 236 244 251 260 269 278 288 299 306 300 297 298 295 303 306 302 303 310 291 238 256 102 139 130 179 200 224 228 237 240 241 219 208 210 268 282 129 125 166
279 296 266 228 228 225 227 230 230 237 245 258 267 277 287 293 298 297 298 294 292 301 301 288 296 316 250 263 14 140 159 158 182 210 225 235 241 256 305 281 217 194 71 71 83 213 235
270 268 288 248 227 225 227 228 230 236 243 253 266 276 285 291 299 299 297 294 291 293 290 280 286 277 265 246 333 268 213 258 266 223 244 227 247 244 246 247 30 142 115 9 185 196 207
265 258 265 265 231 222 220 224 228 234 240 246 262 275 286 296 302 297 294 289 282 285 274 269 278 268 266 267 250 261 242 255 236 235 246 348 245 259 281 353 161 196 178 179 212 192 230
258 261 253 265 241 221 220 219 225 229 234 240 256 270 284 295 300 294 292 279 266 264 248 248 232 235 267 116 229 240 237 253 150 226 212 252 223 223 191 215 189 203 189 198 181 210 194
254 255 246 258 261 229 220 218 217 223 226 234 254 268 284 298 298 291 278 267 218 234 217 221 260 253 232 232 60 293 196 211 205 155 183 213 204 215 214 216 212 198 212 170 177 184 199
257 252 256 258 257 240 225 216 216 212 217 226 243 258 279 294 288 263 236 217 210 197 223 238 129 255 293 337 251 218 162 204 220 209 257 191 214 219 187 224 220 243 186 199 148 164 204
248 248 247 250 262 251 232 220 212 206 211 217 231 252 275 287 278 239 260 246 358 352 289 217 247 259 269 275 275 220 181 234 203 125 253 244 184 243 203 201 232 250 189 145 120 177 273
240 240 240 244 251 268 235 221 207 203 201 210 215 230 258 267 171 206 240 240 334 353 258 195 216 239 241 204 245 210 194 232 195 183 228 348 282 173 190 196 223 202 265 337 185 177 226
236 229 231 237 245 256 251 220 205 201 196 200 203 202 205 148 205 229 234 241 256 307 271 168 199 220 202 226 232 252 203 261 200 244 251 107 233 186 195 233 277 191 19 223 169 196 210
233 231 224 229 235 244 256 221 204 197 193 193 191 188 185 201 331 220 37 255 132 220 253 154 172 140 171 208 62 189 183 215 263 195 229 209 176 183 214 49 304 94 138 239 249 256 209
230 228 226 224 227 223 236 233 197 191 184 186 181 180 172 198 249 267 334 307 190 230 236 166 161 188 183 207 209 140 197 221 330 253 223 301 325 317 65 104 263 130 206 223 246 256 266
227 224 224 222 216 216 218 219 204 189 176 173 169 175 192 191 231 202 242 207 209 236 123 173 185 184 197 182 190 213 197 203 212 217 209 177 176 113 185 153 163 228 242 256 210 250 244
225 220 217 216 210 208 206 215 206 186 170 158 160 177 217 236 241 302 219 210 230 200 210 154 185 189 201 187 205 200 208 209 217 252 226 203 181 178 161 270 304 213 304 282 278 291 273
222 217 211 213 207 202 202 211 209 183 158 148 146 201 235 207 234 248 216 216 214 255 196 197 192 199 201 187 227 204 219 224 202 225 184 245 163 108 239 239 281 153 244 13 310 93 271
235 215 210 207 208 199 199 209 213 180 151 151 192 191 227 192 184 221 219 233 223 262 244 209 199 206 193 186 201 194 197 220 175 272 273 288 175 189 136 212 202 286 54 210 211 262 255
257 208 200 202 202 200 196 206 209 179 158 172 209 212 177 159 171 210 211 219 237 179 230 231 212 204 208 191 197 193 205 141 209 181 241 246 250 155 169 214 247 171 229 239 310 284 293
255 203 198 198 201 201 199 204 211 180 163 165 205 217 143 157 178 203 209 218 227 227 212 252 275 206 224 190 202 212 222 207 172 192 206 195 267 244 238 82 314 297 271 224 235 225 231
227 203 194 192 199 200 200 203 210 176 162 172 206 166 188 203 197 201 194 223 229 231 212 222 226 211 205 200 202 221 218 68 178 211 239 182 235 243 225 207 213 241 230 244 237 336 245
232 194 194 191 197 201 199 205 214 172 178 198 199 170 157 213 221 199 195 206 211 239 266 214 216 209 196 207 204 198 201 141 192 218 357 332 244 236 244 284 322 204 240 222 216 224 248
229 195 196 195 197 199 196 201 202 175 185 193 238 192 168 189 197 200 194 196 212 203 229 213 207 208 196 196 197 205 190 153 183 152 197 244 237 241 261 293 287 286 276 237 236 242 248
213 208 196 196 196 196 194 187 187 183 182 190 229 197 163 182 192 199 199 208 207 202 191 204 224 205 195 189 201 196 194 193 182 179 199 195 248 278 264 247 265 272 264 256 252 248 255
200 201 197 196 198 195 191 183 186 192 177 177 238 290 184 165 194 192 200 199 202 210 178 275 211 194 201 90 58 35 74 106 152 179 197 190 208 191 253 342 309 285 243 247 249 249 254
194 196 197 197 198 196 184 184 194 192 198 210 222 241 184 174 187 192 200 198 205 208 176 196 226 179 96 123 106 87 87 92 110 84 184 183 204 106 259 255 259 297 20 332 299 284 272
191 195 197 200 200 190 187 190 198 198 199 230 255 271 180 163 189 192 193 196 190 172 137 130 56 94 156 166 126 127 124 80 105 72 134 241 154 155 186 223 292 287 150 306 274 297 14
192 194 199 202 197 190 188 185 190 183 201 220 266 315 272 139 206 186 180 191 168 164 149 94 119 92 154 117 127 198 201 219 170 148 115 127 252 223 164 207 232 70 90 98 275 255 39
190 196 196 193 198 188 186 184 185 191 203 204 233 315 291 174 166 194 192 179 191 173 140 132 161 165 266 108 133 180 194 324 170 193 179 141 242 212 198 253 283 59 128 221 240 44 360
194 189 191 213 203 173 178 182 185 192 190 193 216 267 269 90 111 250 181 195 175 198 154 131 143 183 168 147 170 176 152 196 195 180 175 172 170 189 180 207 263 129 146 254 27 338 4
185 183 207 168 166 171 171 178 183 184 176 195 239 210 280 47 91 77 56 32 12 338 203 172 237 154 173 141 119 99 139 46 349 220 178 214 218 229 208 217 109 177 4 30 331 319 322